Waarnemingen

Advertentie
Mijn weer
Kalmar, Zweden (2670): temperatuur & dauwpunt: 12.02.2019 01:00:00 - 18.02.2019 01:00:00 (CET)Kalmar, Zweden (2670): windsnelheid: 12.02.2019 01:00:00 - 18.02.2019 01:00:00 (CET)Kalmar, Zweden (2670): windrichting: 12.02.2019 01:00:00 - 18.02.2019 01:00:00 (CET)Kalmar, Zweden (2670): luchtdruk: 12.02.2019 01:00:00 - 18.02.2019 01:00:00 (CET)Kalmar, Zweden (2670): zicht: 12.02.2019 01:00:00 - 18.02.2019 01:00:00 (CET)
Datum & Tijd tt [°C] td [°C] ff [km/u] ff [kn] dd ppp [hPa] vv [km]
18.02.2019 01:00:00 -1,0 -1,0 8 4 Z 1022,2 1,8
18.02.2019 00:00:00 0,0 0,0 4 2 - 1022,3 10
17.02.2019 23:00:00 0,3 0,0 4 2 WZW 1022,1 10
17.02.2019 22:00:00 2,5 1,3 4 2 - 1022,2 10
17.02.2019 21:00:00 5,5 3,2 4 2 - 1022,2 10
17.02.2019 20:00:00 6,8 3,2 5 3 W 1021,9 10
17.02.2019 19:00:00 7,6 3,3 9 5 W 1021,9 10
17.02.2019 18:00:00 7,6 2,5 5 3 WZW 1021,7 10
17.02.2019 17:00:00 8,7 2,5 11 6 WNW 1021,3 10
17.02.2019 16:00:00 9,0 2,3 13 7 W 1021,0 10
17.02.2019 15:00:00 9,5 1,9 18 10 W 1020,7 10
17.02.2019 14:00:00 10,9 2,7 24 13 W 1020,5 10
17.02.2019 13:00:00 9,6 4,0 21 11 W 1020,6 10
17.02.2019 12:00:00 9,8 4,2 18 10 W 1020,6 10
17.02.2019 11:00:00 9,1 5,1 16 9 W 1020,5 10
17.02.2019 10:00:00 7,5 5,1 16 9 W 1020,3 10
17.02.2019 09:00:00 6,8 4,8 8 4 WZW 1020,1 10
17.02.2019 08:00:00 6,6 4,4 8 4 W 1020,0 10
17.02.2019 07:00:00 6,9 4,9 9 5 WZW 1019,4 10
17.02.2019 06:00:00 7,2 4,7 11 6 WNW 1018,9 10
17.02.2019 05:00:00 7,2 4,7 9 5 WNW 1018,7 10
17.02.2019 04:00:00 7,5 4,6 11 6 W 1018,4 10
17.02.2019 03:00:00 7,4 4,7 11 6 WZW 1017,8 10
17.02.2019 02:00:00 8,1 4,7 15 8 W 1017,2 10
17.02.2019 01:00:00 8,0 4,8 16 9 W 1016,9 10
17.02.2019 00:00:00 7,2 4,7 18 10 W 1016,6 10
16.02.2019 23:00:00 6,8 4,1 22 12 W 1016,5 10
16.02.2019 22:00:00 7,6 4,0 18 10 W 1016,3 10
16.02.2019 21:00:00 8,0 3,6 18 10 W 1016,1 10
16.02.2019 20:00:00 8,7 3,3 13 7 W 1016,0 10
16.02.2019 19:00:00 8,3 1,7 13 7 WZW 1015,6 10
16.02.2019 18:00:00 8,7 2,0 15 8 ZW 1014,9 10
16.02.2019 17:00:00 10,3 1,7 16 9 ZW 1014,5 10
16.02.2019 16:00:00 12,0 1,6 16 9 ZW 1014,6 10
16.02.2019 15:00:00 13,2 0,9 18 10 ZW 1015,1 10
16.02.2019 14:00:00 13,2 0,6 18 10 ZW 1015,8 10
16.02.2019 13:00:00 13,0 -0,3 16 9 ZW 1016,6 10
16.02.2019 12:00:00 12,1 0,8 15 8 Z 1017,6 10
16.02.2019 11:00:00 9,8 1,2 11 6 ZZW 1018,1 10
16.02.2019 10:00:00 7,1 0,7 15 8 ZW 1018,9 10
16.02.2019 09:00:00 4,8 -0,2 9 5 ZW 1019,5 10
16.02.2019 08:00:00 0,4 -2,5 11 6 Z 1020,0 10
16.02.2019 07:00:00 1,3 -1,9 9 5 Z 1020,3 10
16.02.2019 06:00:00 3,1 -1,5 13 7 ZZW 1020,7 10
16.02.2019 05:00:00 4,6 -1,4 11 6 ZZW 1021,5 10
16.02.2019 04:00:00 0,2 -0,9 11 6 Z 1022,1 10
16.02.2019 03:00:00 0,5 -1,1 11 6 Z 1022,8 10
16.02.2019 02:00:00 0,0 -1,1 15 8 Z 1023,8 10
16.02.2019 01:00:00 -1,1 -2,2 9 5 Z 1024,5 10
16.02.2019 00:00:00 1,7 -0,6 11 6 Z 1024,7 10
15.02.2019 23:00:00 1,4 -1,2 9 5 ZZW 1025,0 10
15.02.2019 22:00:00 4,1 -0,1 9 5 ZZW 1025,5 10
15.02.2019 21:00:00 3,5 -0,7 9 5 Z 1025,8 10
15.02.2019 20:00:00 5,2 -0,4 8 4 ZW 1025,8 10
15.02.2019 19:00:00 6,5 0,0 11 6 WZW 1026,1 10
15.02.2019 18:00:00 6,5 0,4 8 4 ZZW 1026,0 10
15.02.2019 17:00:00 8,3 -0,2 11 6 W 1026,0 10
15.02.2019 16:00:00 9,6 0,7 16 9 W 1026,2 10
15.02.2019 15:00:00 10,3 2,6 15 8 W 1026,8 10
15.02.2019 14:00:00 10,8 3,8 15 8 W 1027,3 10
15.02.2019 13:00:00 10,1 5,1 15 8 W 1027,6 10
15.02.2019 12:00:00 8,9 5,5 18 10 W 1027,9 10
15.02.2019 11:00:00 8,1 5,6 18 10 W 1028,1 10
15.02.2019 10:00:00 7,2 5,3 21 11 W 1028,1 10
15.02.2019 09:00:00 6,4 4,9 16 9 WNW 1027,9 10
15.02.2019 08:00:00 6,1 4,9 16 9 WNW 1027,4 10
15.02.2019 07:00:00 5,9 4,9 18 10 W 1027,0 10
15.02.2019 06:00:00 5,6 4,7 16 9 W 1026,8 10
15.02.2019 05:00:00 5,2 4,2 13 7 W 1026,7 10
15.02.2019 04:00:00 5,4 4,2 15 8 W 1026,8 10
15.02.2019 03:00:00 5,3 4,0 11 6 W 1026,9 10
15.02.2019 02:00:00 5,5 3,8 11 6 W 1026,8 10
15.02.2019 01:00:00 5,4 3,6 13 7 W 1026,3 10
15.02.2019 00:00:00 5,3 3,1 16 9 W 1026,7 10
14.02.2019 23:00:00 6,1 3,6 22 12 W 1026,6 10
14.02.2019 22:00:00 6,0 3,5 24 13 W 1026,6 10
14.02.2019 21:00:00 5,9 3,7 26 14 W 1026,7 10
14.02.2019 20:00:00 6,3 3,8 29 16 W 1027,0 10
14.02.2019 19:00:00 7,0 3,6 29 16 W 1027,4 10
14.02.2019 18:00:00 7,5 4,1 26 14 W 1027,2 10
14.02.2019 17:00:00 7,4 4,5 31 17 W 1027,5 10
14.02.2019 16:00:00 7,7 4,6 28 15 W 1027,4 10
14.02.2019 15:00:00 8,1 5,0 24 13 W 1027,4 10
14.02.2019 14:00:00 8,4 5,0 24 13 W 1027,9 10
14.02.2019 13:00:00 9,0 5,2 28 15 W 1028,5 10
14.02.2019 12:00:00 9,2 5,0 18 10 W 1028,6 10
14.02.2019 11:00:00 8,0 5,1 26 14 W 1028,6 10
14.02.2019 10:00:00 7,2 5,0 21 11 W 1028,6 10
14.02.2019 09:00:00 6,0 4,6 16 9 W 1028,5 10
14.02.2019 08:00:00 5,4 4,7 11 6 ZW 1028,0 10
14.02.2019 07:00:00 4,6 3,9 11 6 ZW 1027,6 10
14.02.2019 06:00:00 4,0 3,3 8 4 WZW 1027,5 10
14.02.2019 05:00:00 3,6 2,7 9 5 W 1027,4 10
14.02.2019 04:00:00 2,4 1,7 9 5 W 1027,2 10
14.02.2019 03:00:00 2,3 1,3 9 5 WZW 1026,4 10
14.02.2019 02:00:00 2,4 1,1 9 5 NW 1025,6 10
14.02.2019 01:00:00 3,2 0,3 9 5 WNW 1025,2 10
14.02.2019 00:00:00 3,7 0,0 9 5 W 1024,9 10
13.02.2019 23:00:00 4,4 0,4 18 10 W 1023,9 10
13.02.2019 22:00:00 4,4 1,0 16 9 W 1023,8 10
13.02.2019 21:00:00 5,0 1,3 16 9 W 1023,2 10
13.02.2019 20:00:00 5,4 1,1 15 8 WNW 1022,6 10
13.02.2019 19:00:00 6,2 1,7 18 10 W 1022,5 10
13.02.2019 18:00:00 7,3 2,0 16 9 W 1021,8 10
13.02.2019 17:00:00 7,9 1,3 11 6 WNW 1020,7 10
13.02.2019 16:00:00 9,4 2,0 21 11 WNW 1019,9 10
13.02.2019 15:00:00 10,2 2,3 28 15 WNW 1019,2 10
13.02.2019 14:00:00 10,5 2,3 29 16 WNW 1018,6 10
13.02.2019 13:00:00 10,1 2,2 31 17 WNW 1017,9 10
13.02.2019 12:00:00 9,6 2,9 35 19 WNW 1017,3 10
13.02.2019 11:00:00 8,9 2,7 37 20 WNW 1016,1 10
13.02.2019 10:00:00 7,7 3,0 41 22 WNW 1015,3 10
13.02.2019 09:00:00 7,0 3,2 35 19 WNW 1014,7 10
13.02.2019 08:00:00 6,5 3,3 37 20 WNW 1014,2 10
13.02.2019 07:00:00 6,4 3,4 37 20 W 1013,1 10
13.02.2019 06:00:00 6,2 3,9 37 20 W 1013,3 10
13.02.2019 05:00:00 4,7 3,7 26 14 W 1013,4 10
13.02.2019 04:00:00 3,5 2,6 16 9 WZW 1015,2 10
13.02.2019 03:00:00 2,3 1,6 18 10 WZW 1016,3 10
13.02.2019 02:00:00 1,5 0,8 18 10 ZZW 1017,5 10
13.02.2019 01:00:00 0,8 0,5 15 8 ZZW 1019,4 10
13.02.2019 00:00:00 0,6 -0,4 13 7 ZW 1021,0 10
12.02.2019 23:00:00 1,8 -3,3 15 8 W 1022,1 10
12.02.2019 22:00:00 1,8 -4,5 24 13 W 1022,5 10
12.02.2019 21:00:00 1,8 -5,3 18 10 W 1022,7 10
12.02.2019 20:00:00 1,9 -6,2 18 10 W 1022,9 10
12.02.2019 19:00:00 1,8 -6,5 18 10 W 1023,3 10
12.02.2019 18:00:00 1,9 -6,4 18 10 W 1023,1 10
12.02.2019 17:00:00 1,8 -6,5 13 7 W 1022,6 10
12.02.2019 16:00:00 2,7 -7,2 21 11 WNW 1022,4 10
12.02.2019 15:00:00 3,9 -7,3 24 13 WNW 1021,7 10
12.02.2019 14:00:00 3,9 -6,0 24 13 WNW 1021,3 10
12.02.2019 13:00:00 3,7 -5,1 18 10 WNW 1020,8 10
12.02.2019 12:00:00 3,1 -3,9 16 9 NW 1020,6 10
12.02.2019 11:00:00 2,1 -3,8 21 11 NW 1020,4 10
12.02.2019 10:00:00 1,0 -3,9 21 11 NW 1019,6 10
12.02.2019 09:00:00 -0,1 -3,6 21 11 NW 1018,6 10
12.02.2019 08:00:00 -1,1 -3,8 21 11 NNW 1017,4 10
12.02.2019 07:00:00 -1,1 -3,8 21 11 NW 1016,5 10
12.02.2019 06:00:00 -1,5 -3,8 15 8 NNW 1015,6 10
12.02.2019 05:00:00 -1,3 -4,0 16 9 NW 1014,3 10
12.02.2019 04:00:00 -0,5 -3,9 18 10 NW 1013,3 10
12.02.2019 03:00:00 -0,3 -3,7 18 10 NW 1012,4 10
12.02.2019 02:00:00 -0,4 -3,8 21 11 NW 1011,3 10
12.02.2019 01:00:00 -0,4 -3,9 21 11 NW 1010,4 10

tt = temperatuur
td = dauwpunt
ff = windsnelheid
dd = windrichting
ppp = luchtdruk
vv = zicht

Weerstations in de omgeving